Wind_Gust
10 11 7 6 3 5 6 3 2 3 4 4 4 5 5 6 8 7 8 9 10 9 11 11 10 6 8 8 8 8 9 10 9 10 8 8 7 7 9 10 8 5 5 6 6 6 7 11 14 7 4 7 7 4 5 5 5 7 7 7 10 10 10
6 4 4 4 7 5 6 2 3 2 4 5 6 5 4 5 6 8 8 9 10 8 9 9 8 8 9 8 9 10 9 10 9 7 9 8 7 7 7 8 7 9 9 5 8 5 6 6 7 6 13 10 7 6 4 5 7 6 8 9 11 11 11
4 2 4 7 6 4 7 3 2 4 4 5 6 6 6 5 6 7 9 9 9 8 8 8 7 9 8 9 7 8 7 8 7 8 9 7 7 6 6 5 7 6 6 5 6 11 7 5 10 11 10 11 14 8 8 10 9 8 8 8 8 10 11
7 7 6 3 3 3 7 5 4 4 2 2 5 5 5 5 6 6 9 8 8 8 9 9 8 9 8 8 7 7 8 8 7 8 8 6 5 6 7 7 7 7 5 5 6 7 6 7 11 10 10 10 12 17 10 6 10 12 10 7 8 8 10
12 11 12 11 9 8 7 8 5 3 3 1 2 4 4 4 7 7 7 8 9 9 9 7 7 8 8 8 8 8 7 6 5 7 6 7 6 5 6 6 6 6 6 5 7 6 5 6 7 10 10 11 11 10 10 10 10 11 10 9 8 9 10
12 12 12 11 9 10 9 6 6 7 5 4 2 5 2 3 6 8 7 9 8 7 8 8 7 7 8 8 8 8 7 7 7 7 7 5 6 6 5 4 3 4 4 5 5 6 6 6 8 10 9 8 13 15 12 10 14 8 10 11 10 9 10
12 12 12 13 12 10 11 11 11 11 10 9 8 7 7 6 5 7 8 8 6 5 6 8 8 7 7 9 7 8 7 4 6 6 6 6 7 6 6 7 7 5 5 5 6 6 7 7 8 8 10 9 8 14 12 9 6 13 9 7 7 8 9
12 12 12 12 13 11 9 10 9 7 10 9 11 7 7 7 8 8 8 9 6 6 5 7 8 7 7 8 7 7 6 5 5 6 6 6 8 8 8 7 8 8 8 7 5 7 7 8 8 9 9 14 12 9 11 9 10 11 17 9 9 10 11
10 9 9 8 9 11 12 12 12 10 10 8 5 8 7 10 10 9 7 8 7 6 6 7 7 7 7 8 7 6 7 3 6 6 6 6 7 7 7 6 7 8 9 9 8 8 7 7 9 8 9 10 14 18 9 16 11 12 9 13 9 10 10
11 12 14 13 13 11 10 11 11 12 7 6 8 6 10 7 10 10 9 8 7 7 7 7 7 6 6 7 6 5 6 4 4 4 3 4 5 5 6 6 5 7 8 8 8 9 9 8 7 9 8 9 9 14 16 14 14 14 6 6 10 8 6
14 13 11 12 11 11 10 9 7 7 10 10 10 9 10 10 8 9 10 7 7 6 7 6 7 7 7 6 4 4 4 4 4 4 3 1 3 3 3 6 5 7 7 7 8 8 8 9 10 9 8 9 9 11 11 14 21 11 14 8 11 15 7
11 11 11 9 9 12 13 12 12 13 8 8 10 10 10 10 9 9 9 9 7 8 7 7 7 8 6 6 2 3 4 4 4 3 3 2 3 3 5 5 6 7 7 7 8 8 8 8 9 9 10 9 9 10 13 12 20 13 7 9 9 8 10
12 12 12 12 13 13 13 13 12 9 12 11 11 12 12 11 11 10 9 10 8 7 7 7 7 8 7 6 5 4 4 3 3 3 6 6 6 7 6 7 7 7 8 7 8 8 8 8 7 8 9 9 10 9 10 13 17 26 9 12 12 12 13
13 12 9 11 13 14 11 12 13 13 10 11 12 12 11 11 11 10 8 7 7 6 5 6 7 7 7 6 6 4 5 5 6 5 3 6 5 6 6 7 9 9 8 8 9 8 9 8 8 8 8 7 9 9 10 12 18 21 18 7 10 10 10
14 13 13 12 13 13 11 12 11 9 12 11 12 13 12 10 9 9 7 6 6 6 5 7 6 7 7 5 4 5 6 7 7 6 5 5 5 5 5 6 7 9 9 9 9 10 9 9 8 9 9 7 8 9 7 11 13 16 24 14 11 8 10
14 13 14 14 15 15 13 10 9 12 12 11 9 11 11 10 9 7 6 6 5 5 5 6 6 7 7 5 3 4 5 7 6 6 5 2 4 4 6 7 8 8 7 8 9 9 8 8 7 8 9 8 8 8 8 7 11 15 16 22 12 13 9
13 15 16 17 16 14 12 10 10 11 11 11 13 8 9 10 8 7 6 4 4 4 5 5 5 5 7 7 7 6 6 7 6 5 4 3 4 4 5 7 8 8 8 9 9 8 8 8 9 9 9 8 7 8 7 6 7 11 12 20 15 15 13
17 17 19 17 15 11 10 11 10 11 11 11 10 11 8 8 9 8 8 6 5 4 5 5 5 4 4 5 6 6 5 4 3 3 4 5 5 5 6 7 8 7 7 9 10 10 9 9 9 10 10 10 10 10 9 8 9 8 11 16 18 13 11
18 20 20 17 15 13 13 12 13 10 12 13 10 10 12 9 11 10 7 7 7 7 6 6 6 6 5 5 5 4 2 1 3 4 5 6 7 7 7 8 9 8 8 9 10 10 9 10 9 10 10 11 11 10 10 10 10 10 11 14 14 20 10
20 19 18 17 14 14 16 16 16 16 13 14 14 12 9 11 7 9 8 9 9 9 8 7 5 4 5 6 4 2 2 4 6 6 6 8 8 8 9 9 9 9 10 9 10 11 11 10 11 10 10 10 9 10 12 12 11 12 12 13 14 14 16
9 10 10 11 15 16 17 17 18 15 15 15 14 13 13 12 9 7 10 9 8 8 8 7 6 6 5 3 2 3 5 5 7 8 8 9 8 9 9 10 10 10 11 11 11 11 11 12 10 10 9 9 10 11 12 12 12 12 13 13 15 17 15
7 7 8 10 8 16 18 18 17 17 15 14 12 12 11 11 11 8 6 8 9 8 9 7 6 5 3 2 1 4 6 7 8 9 9 9 9 9 9 9 10 11 13 14 15 14 12 11 12 13 11 10 11 13 13 12 13 12 13 16 17 13 17
11 15 15 16 18 18 16 13 15 16 14 12 12 10 10 8 10 11 11 9 8 8 7 5 5 6 4 2 4 4 5 7 8 9 10 11 10 10 10 10 11 16 17 17 17 16 16 16 16 16 15 11 12 13 14 14 15 13 17 22 19 15 20
11 13 14 14 12 12 14 18 19 18 15 11 11 10 10 10 8 9 11 12 10 8 6 5 5 4 4 5 3 3 5 7 7 9 10 10 12 12 11 11 10 12 15 14 17 16 16 17 17 18 18 18 14 16 15 16 16 13 17 19 18 20 21
11 12 13 14 15 16 18 18 18 16 15 13 10 12 11 10 11 10 11 10 9 8 6 4 4 4 4 6 7 6 5 7 8 9 10 11 12 12 13 13 11 11 12 14 16 16 16 16 17 18 18 18 18 19 17 18 18 17 15 19 19 19 20
12 13 14 12 11 12 13 11 11 14 15 12 12 14 12 12 12 10 12 12 9 6 5 4 2 3 6 7 9 8 6 7 9 10 11 12 12 13 13 14 14 12 12 15 19 15 15 16 14 17 18 18 18 18 17 18 18 20 17 20 22 23 22
12 12 10 10 12 14 16 17 16 13 13 11 13 14 13 13 11 11 10 10 9 7 5 3 2 4 7 9 10 9 7 9 9 11 12 13 14 14 14 15 15 15 12 12 13 15 15 17 17 17 17 16 16 17 16 19 19 21 21 23 21 25 21
10 10 12 14 14 16 16 15 15 15 16 16 16 18 17 14 10 10 8 9 9 5 4 3 2 5 7 10 11 9 8 9 10 11 12 12 14 14 14 15 15 16 15 14 13 14 16 15 16 18 17 18 18 18 18 17 16 17 18 20 21 23 22
11 12 14 16 16 16 16 18 17 15 14 13 13 14 10 12 12 10 8 7 6 3 3 3 4 6 8 10 11 9 9 10 11 13 14 13 13 13 13 14 15 18 19 17 13 15 17 20 21 20 21 21 21 20 21 13 16 18 20 21 20 21 20
13 14 16 18 18 18 17 15 14 15 19 17 16 15 14 10 11 11 9 7 7 4 3 5 4 6 8 11 9 10 10 11 12 14 15 14 14 13 13 14 17 19 16 18 15 15 15 16 21 22 23 23 23 22 23 15 16 19 21 23 24 24 23
15 15 17 19 18 17 17 16 17 17 22 19 16 13 12 11 9 10 10 8 8 7 6 6 6 7 9 10 10 10 11 12 14 15 16 13 13 13 15 23 23 21 18 20 13 14 14 18 23 24 24 27 30 29 25 16 17 17 15 20 23 24 25
15 13 12 11 10 18 21 21 16 16 18 16 15 12 11 11 8 5 5 7 9 7 6 5 6 8 9 11 11 9 11 11 15 16 17 19 14 17 17 14 20 24 24 23 20 20 20 23 27 26 29 30 33 31 27 21 24 20 19 20 22 22 23
17 20 23 21 21 20 15 13 15 15 13 14 14 11 10 10 10 6 4 5 5 6 6 6 6 9 9 11 12 13 10 12 16 18 18 17 18 15 18 20 21 19 21 22 22 23 22 23 27 29 28 32 33 34 23 22 22 23 26 25 25 23 24
17 14 19 23 23 22 20 19 12 13 12 10 12 9 7 6 5 5 4 4 5 6 7 7 8 8 10 11 12 12 10 13 16 19 21 20 17 22 23 22 20 16 20 22 23 25 25 25 24 27 27 34 34 34 26 27 30 21 29 28 28 28 28
20 21 16 17 18 17 14 14 14 15 13 13 12 10 6 6 4 2 3 5 6 8 8 9 7 9 11 12 13 13 12 13 16 22 20 21 24 23 22 22 20 18 18 20 21 22 24 24 25 29 31 24 26 25 37 28 28 29 29 29 28 28 28
21 20 22 22 20 15 12 14 11 11 12 10 11 10 8 6 3 2 5 7 7 8 8 7 9 10 11 13 13 14 15 15 15 23 20 24 23 25 22 23 25 24 22 22 24 25 26 28 26 31 27 28 28 28 29 27 25 29 32 30 30 30 28
19 17 18 18 19 17 12 12 10 8 9 11 10 9 6 5 3 2 5 10 10 9 7 6 9 12 13 14 14 15 15 16 17 18 21 23 25 24 24 23 24 22 26 27 29 30 30 29 32 29 30 30 30 28 29 31 28 31 29 32 30 32 31
Wind_Speed
6 6 5 4 2 3 4 2 1 2 3 3 3 3 3 4 5 5 5 6 6 5 6 6 6 4 5 5 5 5 5 5 6 6 5 5 4 3 4 5 5 3 1 2 3 2 3 4 4 1 3 4 4 2 3 2 1 3 4 4 5 5 5
3 2 2 2 4 3 4 1 2 2 3 3 4 3 3 3 4 5 5 6 6 5 5 6 5 5 6 5 6 6 6 6 5 4 5 4 4 3 3 5 4 4 3 2 2 2 2 2 3 2 6 4 3 1 1 1 3 3 4 5 5 6 5
2 2 3 4 4 3 4 3 2 2 2 3 4 4 4 4 4 5 6 6 6 5 5 5 5 6 5 5 5 5 5 6 5 5 5 4 4 3 3 2 4 3 3 2 4 5 3 2 5 5 4 6 7 3 5 5 4 4 4 4 5 5 5
4 4 4 3 3 3 5 4 3 3 1 2 2 4 3 3 4 4 6 5 5 5 5 6 6 6 5 5 5 5 5 5 4 5 5 4 3 4 4 3 3 3 2 1 2 2 2 2 4 4 5 5 6 8 3 4 5 6 5 4 5 5 5
8 6 7 7 6 5 5 6 3 2 2 1 1 3 3 3 4 5 5 5 6 6 5 5 5 5 5 5 5 5 5 4 4 4 4 4 4 3 4 3 3 2 3 2 2 2 1 2 3 4 4 4 5 4 4 5 6 5 5 5 4 4 5
7 8 7 7 6 6 6 4 4 5 3 3 2 3 2 3 4 5 5 5 5 5 5 5 5 5 5 5 5 5 5 5 4 4 4 4 4 4 4 2 1 2 2 3 2 2 2 2 3 4 4 3 5 6 5 5 4 4 5 6 5 4 4
7 7 7 8 7 6 6 7 7 7 7 6 5 5 4 4 3 4 5 5 4 4 4 5 5 4 5 5 5 5 5 3 4 5 4 4 5 4 3 4 4 3 2 2 3 3 3 2 2 3 4 3 4 6 4 3 2 5 3 3 3 4 5
7 7 7 7 7 7 5 6 6 5 6 6 6 4 5 5 6 6 5 6 4 4 4 4 5 5 5 5 5 5 4 3 4 4 4 4 5 6 6 4 5 5 4 3 2 3 3 4 3 3 3 6 5 4 4 3 5 6 8 4 5 5 5
6 6 6 5 6 6 7 7 7 6 6 5 4 5 4 6 6 6 5 5 5 4 4 5 5 5 5 5 4 4 4 2 4 5 4 4 5 5 4 4 4 5 5 5 4 4 3 4 4 3 4 4 6 8 4 6 5 6 5 5 3 5 5
7 8 8 8 8 7 6 7 7 7 5 4 5 4 6 5 6 6 6 6 5 5 5 5 5 4 4 4 4 4 4 2 3 3 1 3 3 3 4 4 3 4 5 5 5 5 5 4 3 4 4 4 4 6 6 5 6 5 2 2 3 3 3
8 8 7 8 7 7 6 6 4 4 6 6 5 5 6 7 6 6 6 5 5 4 5 4 5 5 5 4 3 3 3 2 3 2 1 0 1 1 2 3 3 4 4 4 4 5 5 5 5 4 4 4 4 5 4 6 8 4 6 4 5 5 3
7 6 6 5 6 7 8 7 8 7 5 5 5 6 6 6 6 6 6 6 5 5 5 5 5 5 4 4 2 3 3 3 2 2 1 1 2 2 3 3 3 4 4 4 4 5 5 4 5 4 5 4 4 5 6 5 9 3 2 4 3 4 4
7 7 7 6 7 8 8 8 7 6 7 6 7 8 7 7 7 7 6 6 5 5 5 5 5 5 5 4 3 3 2 2 2 2 3 3 3 4 4 4 4 4 4 4 5 5 5 5 4 4 4 5 5 5 5 6 8 11 3 6 6 6 8
8 7 6 6 7 8 7 7 7 7 5 7 7 7 7 7 7 6 6 4 5 4 4 5 4 5 5 4 4 3 4 4 4 3 1 3 3 3 3 4 5 5 4 4 4 4 5 5 5 4 3 3 4 4 5 6 9 11 6 4 5 4 5
9 8 8 8 8 8 7 8 6 5 7 6 7 8 7 6 6 6 5 5 5 4 4 5 5 5 4 3 3 3 4 4 4 4 3 3 3 2 3 3 4 5 4 5 5 5 4 4 4 4 4 3 3 4 3 4 6 7 12 6 5 4 5
7 8 9 9 9 9 8 6 6 8 7 7 6 7 7 7 6 5 4 4 4 4 4 5 4 5 5 4 2 3 4 4 4 3 3 1 1 2 4 4 5 5 4 5 5 4 4 4 3 4 4 4 4 4 3 3 4 6 8 10 6 7 5
8 8 9 9 10 9 7 6 6 7 7 7 8 5 6 7 6 5 4 3 3 3 4 4 4 4 5 5 4 4 4 4 4 3 2 1 2 2 3 4 5 5 5 6 6 5 4 4 4 4 5 5 4 5 4 3 3 4 4 8 7 6 6
10 11 11 10 10 7 6 6 6 7 7 7 6 7 5 5 6 6 5 4 4 3 4 4 4 3 3 4 4 4 4 3 2 2 2 3 3 3 4 4 5 4 5 6 6 5 5 6 5 5 5 5 5 5 4 4 4 4 5 8 8 5 5
11 12 13 11 10 9 8 8 8 7 8 8 7 7 8 6 7 6 5 5 5 5 5 4 4 4 4 3 3 3 1 0 2 3 3 3 4 4 4 5 5 5 4 5 5 5 5 6 5 5 6 6 5 5 5 5 5 5 6 7 7 8 5
10 10 9 9 8 9 10 10 10 10 8 9 9 7 6 7 5 6 6 6 6 6 6 5 4 3 4 4 3 1 2 3 4 4 4 5 5 5 5 5 6 6 6 6 6 6 6 6 5 6 6 6 5 5 6 6 6 6 6 7 7 7 7
4 4 3 3 5 7 9 10 10 9 9 9 9 8 8 8 6 5 6 6 5 5 5 5 4 4 3 2 1 3 3 4 5 5 5 5 5 6 6 6 6 7 7 7 6 6 6 6 5 6 5 5 5 6 6 6 6 6 6 6 7 7 6
5 4 4 5 4 3 0 2 3 3 7 8 7 8 7 7 7 5 4 5 6 5 6 5 4 3 2 2 1 3 4 5 5 6 6 6 6 6 6 6 6 7 7 10 12 11 9 8 6 6 5 5 6 6 6 6 6 6 6 8 8 6 7
6 7 9 10 10 10 9 7 6 5 5 6 7 6 6 5 6 7 7 6 6 5 5 3 4 5 3 2 3 3 3 4 5 6 6 7 7 6 7 7 6 11 12 13 13 13 13 13 13 10 7 5 6 6 7 7 7 6 7 10 8 7 9
7 8 8 8 6 7 9 10 11 11 10 7 7 6 6 6 5 6 7 7 6 5 4 3 5 4 4 2 1 2 3 5 5 5 6 7 8 7 7 7 7 8 10 10 10 12 13 14 14 14 15 15 11 8 7 8 8 7 8 9 8 9 9
6 7 6 7 7 8 8 9 9 8 8 9 7 7 7 6 6 6 6 7 6 5 4 4 4 3 2 3 3 3 3 4 5 5 6 7 7 6 7 7 6 5 6 8 8 9 11 13 14 15 15 15 15 16 14 10 9 8 7 9 10 10 9
7 7 7 7 7 8 8 7 7 9 10 8 7 8 8 7 7 6 7 7 6 4 4 4 2 1 2 3 5 4 4 4 5 6 7 7 7 7 6 7 6 5 5 11 11 9 8 9 11 14 15 15 15 15 14 15 15 11 7 10 11 12 11
7 7 6 6 8 9 10 11 10 8 8 7 8 8 9 9 7 6 6 6 6 5 4 3 2 1 3 5 6 4 4 5 6 6 7 7 7 7 7 7 7 7 6 6 7 8 8 9 9 9 9 8 8 11 13 15 16 17 15 10 10 13 10
6 6 6 8 8 9 9 8 8 8 9 9 9 10 11 9 6 6 5 5 5 4 2 1 0 3 5 6 7 5 5 5 5 6 7 7 8 8 8 7 8 8 7 7 6 9 10 9 9 8 9 9 9 9 9 9 9 8 9 8 10 12 11
6 6 8 8 9 10 10 11 10 9 9 8 8 9 7 8 7 6 5 5 4 3 1 1 3 4 6 7 8 5 5 6 6 6 7 7 7 6 6 7 8 10 11 11 11 12 12 10 11 12 12 12 11 10 10 9 12 12 11 10 10 10 10
7 8 9 10 10 11 11 9 9 8 11 10 9 9 8 6 7 7 6 5 5 3 2 3 4 4 6 8 6 6 6 6 6 7 7 7 7 7 7 9 10 10 10 10 11 12 12 13 12 12 12 13 12 12 12 8 11 14 16 18 19 19 19
9 9 10 11 11 9 9 9 10 9 12 11 9 8 7 7 6 6 6 6 5 4 4 4 4 4 6 7 6 6 6 7 7 8 8 7 6 7 9 15 14 12 10 10 11 11 11 10 13 14 15 16 17 16 14 9 8 8 13 16 17 18 20
9 8 8 7 6 5 3 8 9 9 10 9 9 7 7 6 5 3 4 5 6 5 4 3 3 5 6 7 6 5 6 6 7 7 8 10 9 9 10 8 14 15 15 15 16 15 16 14 16 15 17 17 18 18 14 12 14 12 11 12 12 12 13
9 11 11 11 12 12 9 7 6 7 7 8 8 7 6 6 6 4 3 3 4 4 4 4 4 6 6 7 8 6 5 6 7 9 10 9 9 8 10 10 13 14 15 17 18 18 17 18 15 16 16 17 18 19 12 12 12 12 14 13 13 12 14
10 8 11 13 13 12 11 11 8 7 6 6 6 5 4 3 3 4 3 3 4 4 4 5 5 6 7 8 9 8 6 6 7 9 11 9 9 11 12 11 11 13 15 16 17 18 19 19 18 15 15 17 18 18 17 14 17 17 16 15 15 14 14
11 11 10 10 11 10 9 9 8 9 7 7 8 7 5 3 3 2 2 3 4 5 5 7 5 6 8 8 9 10 6 6 8 11 10 11 13 12 11 11 10 12 15 16 16 17 18 18 19 16 17 19 21 20 17 15 15 15 14 14 14 14 13
12 11 12 14 13 9 7 9 7 7 7 7 7 7 6 4 2 0 3 3 4 5 5 4 6 6 8 10 10 11 12 10 12 11 10 13 13 13 11 12 13 17 16 17 19 20 21 22 21 18 21 21 21 22 20 13 13 14 16 15 15 15 14
11 10 11 11 11 11 8 8 7 5 6 6 6 6 4 4 2 0 3 5 4 4 4 4 5 7 8 10 11 12 12 13 13 11 10 12 13 12 12 12 14 19 21 22 23 22 22 21 18 22 23 24 23 22 15 15 14 14 14 15 15 16 15
Wind_Direction
173 192 185 177 129 121 117 125 58 5 33 63 76 56 76 99 102 87 86 82 81 78 76 75 85 86 74 50 50 54 48 44 52 72 71 30 61 356 360 32 26 1 313 286 287 282 299 302 298 306 149 33 343 287 234 251 260 254 258 232 233 229 225
184 171 141 123 132 131 122 95 78 31 33 47 63 77 59 77 87 99 92 87 84 84 89 88 80 75 76 75 60 54 56 46 44 57 70 47 45 42 11 12 19 25 338 266 278 276 252 280 285 318 325 315 299 275 129 29 304 270 236 233 225 224 218
142 88 119 125 133 137 144 138 105 75 29 48 37 61 74 72 86 87 86 86 90 91 88 92 91 77 72 70 72 77 74 68 43 58 71 54 47 34 51 48 50 9 15 20 38 6 322 284 282 298 301 321 324 323 332 327 318 284 257 232 225 229 224
170 149 129 138 134 132 154 169 149 138 62 73 14 57 78 84 94 99 102 98 90 86 81 74 72 79 73 75 72 65 62 70 60 64 64 57 54 43 38 53 63 61 52 53 356 3 337 324 340 321 335 329 317 309 319 331 313 296 273 247 232 227 223
167 168 172 179 187 181 179 173 182 143 145 48 94 115 88 87 113 104 106 106 104 100 94 99 91 84 79 75 61 59 58 62 61 62 63 52 47 48 33 22 31 22 38 37 336 324 340 312 317 306 303 318 299 264 310 316 288 277 279 271 249 242 235
179 175 179 182 185 183 181 168 161 179 175 152 188 151 182 147 132 115 108 104 99 102 121 107 107 93 85 73 70 62 53 43 36 43 42 29 38 32 356 350 3 16 335 314 312 308 305 301 296 300 289 299 288 299 304 315 299 298 270 262 263 248 257
185 181 182 183 190 188 177 180 182 183 179 184 177 190 179 150 118 127 119 112 113 120 113 108 105 101 92 84 71 61 56 45 38 39 24 4 12 4 10 358 359 342 295 283 289 292 289 298 296 287 305 286 270 284 288 284 308 315 295 284 264 272 270
185 184 190 190 182 184 192 183 193 183 183 189 181 180 155 138 140 131 131 128 131 130 122 99 99 93 86 78 71 70 62 65 56 53 33 16 6 357 356 355 334 336 323 308 273 276 275 273 274 287 293 303 294 266 280 258 275 241 264 273 263 265 263
192 185 181 189 193 191 186 187 192 192 201 182 172 144 166 146 146 138 131 132 141 137 111 102 94 91 89 88 83 71 78 31 53 36 18 23 7 357 347 345 355 320 320 318 320 301 287 276 283 296 302 295 290 292 286 286 257 260 242 266 287 253 252
193 189 189 193 192 194 187 195 188 200 185 176 170 162 153 159 150 142 137 142 145 131 109 104 104 97 93 88 85 68 69 90 98 92 56 46 332 336 349 344 327 307 309 315 313 311 306 303 281 268 258 268 291 288 296 277 273 277 274 189 302 300 302
200 205 197 193 188 181 195 193 188 163 192 190 169 161 155 156 154 143 139 150 152 125 116 116 106 107 99 90 102 101 122 124 72 83 137 168 251 247 329 334 339 319 301 315 303 298 301 299 297 295 279 268 261 276 284 290 292 271 278 238 237 268 306
211 212 211 198 179 189 194 192 190 196 176 171 161 153 157 156 153 156 151 155 147 131 125 120 122 111 107 105 107 61 80 87 79 3 305 24 330 25 9 325 317 306 306 304 304 302 298 296 291 294 296 289 277 261 275 279 289 265 262 298 293 294 297
213 210 207 195 197 205 203 191 192 182 188 175 176 165 164 162 163 160 169 149 136 131 121 126 120 119 114 105 116 92 98 97 80 21 340 359 358 3 -0 347 325 303 304 310 302 300 295 292 286 288 289 293 287 280 276 278 279 283 268 279 286 285 296
213 212 211 204 209 216 207 198 196 192 162 184 169 169 169 170 168 164 156 149 139 135 126 114 96 105 98 102 113 119 118 114 102 102 78 4 7 12 7 348 327 319 321 309 293 294 292 286 295 287 279 281 283 288 289 287 288 290 284 200 261 287 292
211 204 206 207 214 217 209 203 193 166 185 182 174 172 173 168 162 155 147 147 136 126 119 96 114 106 108 95 77 103 103 103 101 103 107 56 355 355 2 353 324 314 318 308 303 296 292 298 298 307 300 292 287 285 277 290 286 290 295 303 290 268 272
219 212 210 212 215 216 212 202 179 183 182 172 183 172 167 161 157 149 140 140 125 107 109 118 124 116 122 133 140 125 128 129 127 127 108 156 282 308 340 340 315 310 306 313 302 291 297 293 293 291 288 288 291 288 288 277 296 295 295 298 309 300 297
209 218 222 221 218 216 203 193 180 184 179 164 171 170 155 151 143 142 139 123 112 121 120 124 127 131 145 153 152 152 151 141 143 153 167 201 233 260 289 304 302 306 313 305 298 290 291 292 292 286 286 278 262 273 270 277 274 286 293 297 305 312 317
209 210 218 222 222 210 194 183 179 181 166 169 167 150 143 140 139 140 147 152 137 147 163 144 128 136 157 150 141 141 147 144 157 180 202 214 241 247 261 263 275 277 280 287 289 289 283 283 283 286 280 281 279 272 273 266 269 267 282 286 293 286 297
215 216 215 215 212 199 185 177 179 177 172 167 161 161 153 157 154 161 154 152 159 166 162 151 158 170 146 112 88 94 109 268 291 275 268 262 252 250 257 261 260 253 249 253 267 269 275 272 271 268 272 272 274 278 278 279 269 269 264 270 278 293 290
222 226 223 217 198 188 188 184 175 177 175 164 161 158 161 156 163 153 153 149 161 163 160 160 142 104 99 106 120 115 335 303 292 293 277 275 273 266 260 257 256 249 246 239 251 255 261 262 263 266 259 262 264 272 273 273 272 269 265 271 273 269 284
235 231 230 230 221 209 200 185 183 171 158 161 161 161 163 169 160 146 158 160 154 138 123 101 94 105 109 109 65 347 329 310 297 290 279 269 265 261 260 260 257 256 251 248 250 255 250 260 252 259 254 263 267 268 268 268 264 262 262 262 265 279 269
187 176 188 203 195 184 290 260 256 162 154 155 158 164 164 150 136 126 117 115 107 101 112 121 131 135 117 63 82 324 314 306 297 292 289 281 272 265 260 255 256 254 259 262 263 263 262 262 266 267 254 252 261 263 267 265 263 260 259 264 266 260 273
171 177 195 196 197 188 181 152 134 154 183 162 153 155 143 134 140 142 124 106 110 109 104 109 94 85 73 60 11 338 311 296 287 283 286 289 281 273 267 262 262 267 270 272 272 271 269 267 263 258 259 243 248 255 257 263 261 259 266 270 265 268 268
193 201 203 201 185 165 164 169 170 169 161 159 145 139 133 128 123 123 125 126 119 108 109 114 97 87 71 44 63 296 288 289 282 278 277 278 282 279 270 261 257 266 268 274 275 272 270 266 262 261 259 256 253 249 256 254 255 253 260 265 265 262 262
204 209 198 198 183 170 166 170 171 159 144 141 151 138 130 130 127 128 123 117 119 128 130 129 118 80 50 354 331 320 291 286 284 283 275 273 272 273 272 269 265 259 261 263 267 268 265 262 261 260 257 255 253 251 244 245 258 258 249 263 263 255 260
214 206 201 187 168 158 164 160 144 146 158 153 140 132 122 122 127 126 125 126 130 141 139 157 118 78 344 328 320 325 291 277 278 274 276 272 270 270 269 273 274 264 261 265 272 273 272 272 267 264 261 258 253 247 246 244 240 244 255 256 259 262 251
210 205 185 166 159 163 167 168 162 151 131 123 126 117 120 121 125 131 137 137 142 150 161 170 153 332 324 318 317 323 291 286 273 270 271 270 270 273 273 275 279 277 267 265 265 269 269 269 270 269 264 258 254 253 249 243 243 243 242 245 250 257 256
206 183 170 163 163 165 163 144 140 141 136 133 130 133 133 132 141 146 146 142 141 153 189 161 0 322 320 320 322 328 304 291 279 273 269 267 268 272 276 275 273 275 275 268 261 265 272 269 271 269 268 265 260 256 250 247 239 240 238 237 245 250 257
189 169 166 163 162 160 156 156 146 137 121 111 112 112 117 130 146 152 153 135 124 151 271 288 286 302 316 324 330 326 316 299 292 282 278 275 274 269 272 269 276 279 281 278 273 264 265 274 277 277 274 273 272 265 258 249 248 246 246 248 248 249 250
180 173 168 165 165 162 154 144 141 136 124 129 135 138 152 153 150 145 145 143 140 176 260 263 262 295 322 326 336 325 315 303 292 287 280 281 277 273 272 278 280 279 273 274 269 262 262 266 277 275 277 277 275 273 269 260 252 252 252 253 254 255 256
178 169 171 170 168 161 149 140 143 143 132 137 139 146 146 139 149 149 148 159 163 170 224 252 265 302 315 323 322 316 302 300 294 288 288 278 273 270 276 275 284 284 277 276 271 261 260 269 279 279 280 281 280 277 274 270 264 255 254 256 256 255 254
171 151 125 92 73 72 107 137 136 126 128 130 135 137 137 139 144 146 144 154 175 173 216 244 264 286 298 304 311 307 299 289 294 291 294 295 286 286 285 268 278 284 285 285 285 282 279 276 278 278 279 279 278 276 277 279 272 271 268 267 264 263 260
147 141 132 123 118 108 84 35 41 90 106 119 130 138 138 142 158 178 171 164 186 182 193 244 253 263 277 288 297 303 292 299 295 297 297 291 293 284 284 285 284 277 272 271 271 271 269 266 268 274 274 273 274 275 282 277 274 276 277 272 269 262 259
134 131 136 136 131 121 125 130 117 96 95 92 107 114 124 134 129 133 167 206 201 226 205 228 252 252 271 284 294 305 299 289 287 292 297 287 282 288 289 284 282 272 267 269 268 267 266 264 262 263 261 267 268 274 277 272 275 272 272 271 268 266 264
118 117 106 95 93 105 118 115 122 131 138 142 145 144 144 148 159 197 223 230 228 238 232 227 249 267 275 288 294 294 295 281 284 298 289 290 294 291 288 289 288 285 280 279 279 278 274 272 268 266 266 263 265 265 266 267 270 272 270 269 265 263 260
128 127 122 121 124 123 114 117 119 131 139 144 143 144 151 150 139 318 310 268 229 245 250 253 255 271 281 282 284 285 280 284 286 292 289 295 295 292 289 289 290 290 285 281 279 277 275 273 272 270 268 268 268 267 266 262 262 261 264 264 262 260 258
118 116 118 120 120 123 126 120 117 136 141 143 139 134 140 125 115 347 310 309 300 284 268 259 276 268 278 282 283 280 279 281 289 294 290 292 298 296 297 297 296 293 287 285 282 280 278 274 271 269 266 264 262 261 259 261 259 258 257 256 255 255 254